User: anonymous   Login
Location: Unspecified
(0.0000°N, 0.0000°E)
Time: 11:09:59
(UTC+00:00)
Language:

Kosmos-2218 - Orbit

View from above orbital plane
View from above orbital plane
View from above satellite
View from above satellite

Ground track
Ground track

The orbit data is extracted from the following two-line orbital elements,

1 22207U 92073A   18347.19074552  .00000013  00000-0 -21930-5 0  9995
2 22207  82.9209   6.5258 0033884  63.8618 340.4813 13.72871237308824
Epoch (UTC): 13 December 2018 04:34:40
Eccentricity: 0.0033884
inclination: 82.9209°
perigee height: 964 km
apogee height: 1014 km
right ascension of ascending node: 6.5258°
argument of perigee: 63.8618°
revolutions per day: 13.72871237
mean anomaly at epoch: 340.4813°
orbit number at epoch: 30882

The dashed part of the orbit path shows where the satellite is in the earth's shadow,  

DLR